Wetbulb
53.85 52.79 53.53 53.30 53.89 54.16 54.32 53.64 52.98 53.26 53.94 54.26 54.41 54.51 54.64 54.08 53.79 51.28 49.55 54.35 55.59 58.38 59.88 53.17 53.59 56.93 59.57 57.76 58.69 56.60 50.00 46.52 48.13 48.45 50.68 55.25 55.20 58.72 60.35 59.39 60.05 60.89 60.02 61.08 62.88
53.98 52.97 53.12 53.13 53.74 53.82 53.99 53.66 53.60 53.61 53.95 54.13 54.27 54.33 54.67 53.78 49.33 49.24 55.17 55.77 57.99 59.98 56.63 52.93 48.94 54.17 53.75 55.43 56.67 53.61 49.42 49.17 53.00 53.60 52.45 54.03 53.57 56.66 57.20 57.68 58.12 59.21 59.67 61.23 62.08
53.79 52.92 53.01 52.88 53.09 53.33 53.55 53.65 53.68 53.88 53.96 54.09 54.08 54.17 54.17 52.79 45.41 44.86 55.75 55.30 55.90 57.88 57.79 56.87 55.24 52.93 50.43 54.39 54.04 53.24 48.86 53.03 53.12 54.55 54.63 53.10 52.81 55.37 56.39 55.30 58.85 58.70 59.79 59.87 59.84
52.90 53.25 52.97 52.85 52.89 53.49 53.92 53.42 53.45 53.48 53.80 53.84 53.81 54.16 53.32 47.26 33.06 44.31 52.98 54.40 54.76 55.25 53.94 52.94 51.30 47.49 46.87 48.32 53.53 49.40 52.52 53.45 53.88 54.68 53.50 52.12 54.08 53.17 55.44 57.42 59.21 60.78 62.54 59.71 59.25
53.73 53.31 53.10 53.08 53.21 53.21 53.73 53.69 53.38 53.43 53.48 53.57 53.66 53.91 48.85 39.80 39.04 48.00 51.88 52.22 51.81 50.82 48.23 49.07 48.13 46.30 43.43 47.62 50.57 49.77 51.17 53.37 54.51 54.53 54.38 54.90 52.91 53.02 53.85 57.48 60.44 60.57 60.16 59.41 59.67
55.52 54.93 54.26 53.93 53.81 53.42 53.57 53.83 53.47 53.13 53.11 53.18 53.42 53.12 44.31 35.37 46.21 49.16 49.31 50.22 49.92 47.68 46.72 48.62 47.92 48.35 46.18 45.65 46.06 49.93 50.34 50.84 53.60 53.72 54.05 51.78 52.80 53.67 54.15 56.72 56.35 58.30 58.94 59.56 60.15
55.06 55.12 54.93 54.68 54.22 53.67 53.45 53.75 53.31 53.04 52.95 53.10 53.21 50.63 42.03 38.76 48.26 49.52 50.00 48.99 49.44 48.61 45.40 48.30 50.51 46.30 46.28 43.74 48.43 47.83 45.05 48.18 49.47 51.62 52.06 53.94 49.65 50.67 54.86 56.32 56.37 57.48 58.57 59.11 60.23
55.15 55.00 54.53 54.39 54.19 53.50 53.44 53.23 52.91 53.10 53.05 52.91 52.29 47.79 38.79 46.12 49.94 48.88 49.38 47.36 50.09 50.33 49.61 51.07 51.63 46.82 44.90 47.42 44.78 43.03 44.31 39.41 46.63 49.78 52.04 51.33 45.22 53.15 55.93 54.74 54.76 56.95 58.31 57.75 59.26
54.65 54.54 54.28 54.06 53.53 53.10 52.79 52.76 52.42 52.48 52.72 52.79 48.19 44.69 37.28 49.06 44.77 47.37 48.31 44.33 46.58 49.20 50.84 51.01 49.81 42.69 43.01 39.48 37.46 39.66 34.12 38.73 41.92 49.09 50.21 50.00 46.23 52.27 55.96 54.81 54.68 56.01 57.92 57.30 58.18
54.59 54.50 53.89 53.22 52.54 52.22 52.43 50.48 48.78 49.85 48.35 49.95 47.77 40.52 42.11 39.70 44.29 46.00 47.71 47.03 44.00 46.72 44.76 44.48 43.90 38.26 39.01 36.47 27.81 32.47 33.99 36.33 36.74 44.03 47.10 46.71 47.06 51.14 53.92 54.32 54.41 55.69 57.60 57.77 57.08
54.69 54.30 53.53 52.08 51.52 51.88 48.95 46.56 42.76 40.85 43.18 37.63 37.89 37.32 40.05 44.68 46.24 44.63 46.62 45.77 46.16 43.03 35.91 40.18 36.05 32.21 34.25 36.35 36.59 36.40 34.97 34.93 38.96 43.19 42.47 41.43 43.47 46.52 51.92 53.48 53.90 54.95 56.51 57.82 57.47
54.55 54.08 53.02 51.24 50.93 50.25 48.69 42.77 41.98 42.40 36.31 39.88 39.83 40.06 42.53 43.70 38.84 42.72 47.18 40.34 39.36 34.86 38.15 36.26 32.63 37.22 38.27 37.17 34.87 34.91 32.25 33.17 37.29 41.41 40.99 40.54 39.99 43.79 45.28 47.97 53.14 54.77 56.07 57.39 57.30
54.39 54.06 52.14 51.05 49.22 48.41 46.11 43.93 48.28 46.72 36.14 35.85 38.50 38.81 41.34 42.47 38.04 39.55 43.51 41.39 37.33 34.21 34.40 31.00 34.06 37.55 36.00 35.11 32.76 32.94 31.35 32.00 33.20 37.60 40.28 38.70 37.22 41.01 44.98 46.17 49.90 53.04 56.43 57.79 57.63
54.27 52.95 51.67 50.48 46.75 45.45 44.31 47.00 48.35 46.01 31.55 30.77 33.96 38.83 40.06 39.96 35.50 43.12 44.33 41.51 37.75 33.44 34.41 33.69 36.80 35.41 34.90 33.25 34.77 30.11 35.84 34.59 33.59 32.56 29.57 40.23 28.74 38.34 43.48 45.14 47.17 50.22 54.09 56.52 57.62
53.09 51.91 50.62 48.44 45.72 42.65 44.81 47.16 44.88 41.05 22.34 31.15 33.71 42.35 39.75 35.99 37.30 38.60 44.46 41.80 35.18 34.37 34.28 31.53 32.94 33.40 32.76 34.30 36.17 32.03 36.59 34.42 34.55 32.49 30.36 30.54 31.46 36.18 42.06 41.36 45.30 48.84 53.81 56.56 57.69
52.10 51.02 49.50 47.53 47.43 45.47 46.70 42.52 41.29 31.33 21.17 26.21 32.68 32.30 32.80 34.10 35.27 38.28 38.92 42.14 41.65 35.86 35.23 34.40 39.19 36.42 35.72 37.75 37.89 38.30 35.86 35.53 35.30 33.06 24.81 30.88 30.44 32.61 38.06 41.38 45.33 49.98 52.40 55.57 56.97
51.42 49.50 47.51 46.35 42.92 45.71 42.84 40.52 31.74 25.27 26.67 27.37 27.55 31.31 30.15 30.47 31.97 33.89 32.31 32.71 30.60 27.66 28.76 33.34 34.36 36.93 38.03 34.22 37.87 36.59 31.55 23.80 22.88 22.76 23.08 34.61 32.27 34.96 41.95 44.71 46.57 48.68 51.12 53.96 56.86
49.40 46.66 43.82 43.28 44.91 43.86 41.34 35.18 23.53 13.80 19.66 28.00 29.66 28.74 26.45 29.51 30.83 31.13 30.83 28.91 33.53 30.94 28.26 26.36 24.67 34.54 38.69 35.73 32.99 33.65 32.06 25.31 19.24 21.83 27.00 35.22 30.67 36.40 43.53 46.08 46.98 49.57 52.25 54.08 55.24
47.51 43.85 43.56 43.11 43.30 42.83 38.44 28.06 25.83 22.39 26.64 27.98 28.16 24.21 24.79 26.90 28.20 29.24 29.10 27.50 32.04 32.99 24.99 25.02 26.47 36.75 37.76 37.89 36.17 32.80 29.38 34.88 28.77 29.54 26.08 32.12 36.99 41.62 42.08 41.77 43.02 46.84 50.14 53.37 52.72
43.22 41.36 40.65 41.98 42.24 41.10 33.42 27.88 25.66 27.65 31.15 30.08 22.89 21.87 21.07 23.34 25.37 27.09 26.81 30.90 30.73 34.61 35.22 30.21 24.12 33.80 36.36 38.55 38.55 35.38 35.02 29.34 30.28 23.43 22.99 30.08 32.44 35.05 36.11 37.30 37.83 39.46 49.15 50.45 49.27
41.80 38.29 40.92 40.97 41.75 37.36 30.78 26.96 24.74 31.72 33.06 28.49 25.27 24.69 25.91 24.12 24.27 23.39 26.51 31.02 33.26 32.76 34.92 32.15 29.67 29.37 33.52 32.05 31.73 32.20 31.51 32.12 31.88 32.62 26.80 25.75 31.58 35.92 35.36 36.53 37.05 39.38 46.79 45.02 44.59
38.84 32.93 40.69 40.71 33.36 24.25 28.48 24.62 30.44 31.08 34.10 32.77 30.78 28.76 26.83 27.25 26.21 25.06 26.51 29.47 34.95 34.46 29.09 32.44 30.11 25.00 28.43 34.50 37.98 35.58 32.58 33.31 27.37 29.16 30.98 30.62 31.06 37.81 36.53 38.04 41.34 37.64 38.39 40.93 41.24
36.11 35.73 40.10 39.68 30.55 27.04 24.66 28.27 30.62 29.83 30.36 31.49 29.93 30.68 31.07 27.61 24.15 25.85 28.32 33.93 34.97 32.85 30.16 33.57 28.29 23.04 27.61 32.05 35.48 31.62 34.18 35.29 34.15 31.89 30.98 28.75 31.90 39.07 36.29 34.86 36.85 36.10 37.18 37.51 37.01
36.22 31.82 34.05 34.34 30.14 29.12 25.16 26.02 26.71 32.32 30.68 32.12 31.27 32.14 28.72 26.11 28.43 26.27 28.13 32.11 34.43 32.50 34.49 34.05 30.20 27.24 22.78 26.74 30.80 29.08 30.83 33.52 33.42 28.90 30.67 31.11 31.82 34.76 33.49 32.86 34.30 35.48 36.28 36.27 36.22
34.09 30.58 29.23 28.70 29.90 28.89 28.97 27.08 26.33 26.01 31.01 31.90 29.62 29.70 27.66 23.87 24.79 24.54 27.70 29.38 31.65 32.14 31.75 31.12 25.65 28.76 29.63 30.25 31.49 30.54 30.53 33.34 32.53 32.81 30.34 32.27 32.90 32.93 33.58 32.53 33.01 35.29 35.95 35.90 35.70
32.77 30.28 29.90 26.61 28.76 29.70 28.36 26.33 26.40 26.08 28.20 27.98 27.61 28.90 29.25 25.40 27.00 23.61 27.31 27.55 26.97 30.06 28.64 30.39 24.82 27.06 25.71 31.53 31.25 28.40 31.15 32.57 33.45 33.04 33.79 33.51 34.37 39.02 38.88 38.22 33.37 34.23 34.62 35.56 35.79
32.79 32.94 35.75 30.18 29.20 28.33 28.13 26.26 26.99 29.21 30.46 31.45 30.77 28.83 27.52 29.23 31.74 31.74 31.92 31.97 30.49 27.10 26.67 27.03 26.07 23.96 23.31 28.80 28.01 26.48 28.66 29.61 31.32 30.52 31.58 32.15 34.68 38.60 38.46 38.21 37.36 37.40 37.53 36.66 36.54
MSLP
1025.85 1025.81 1025.70 1025.52 1025.30 1025.14 1024.92 1024.69 1024.43 1024.10 1023.77 1023.42 1023.10 1022.72 1022.22 1021.79 1021.06 1020.30 1020.40 1020.93 1020.36 1019.64 1018.95 1018.13 1017.56 1017.13 1016.61 1015.96 1015.52 1015.25 1014.00 1012.57 1012.21 1012.15 1011.81 1012.18 1011.99 1012.23 1012.60 1012.43 1012.64 1012.87 1012.99 1013.65 1014.19
1025.84 1025.85 1025.76 1025.61 1025.43 1025.28 1025.07 1024.84 1024.64 1024.25 1023.83 1023.48 1023.10 1022.66 1022.19 1021.80 1021.31 1020.76 1021.23 1020.87 1020.31 1019.65 1019.13 1018.49 1017.78 1017.47 1016.45 1016.03 1015.41 1014.65 1013.37 1012.22 1012.22 1011.87 1011.67 1011.89 1012.07 1011.96 1012.24 1012.39 1012.72 1013.05 1013.77 1014.10 1014.99
1025.90 1025.90 1025.85 1025.68 1025.51 1025.30 1025.09 1024.88 1024.69 1024.47 1024.08 1023.57 1023.07 1022.65 1022.20 1021.85 1021.50 1021.46 1021.36 1020.90 1020.37 1019.74 1019.24 1018.93 1018.41 1017.81 1016.80 1015.99 1015.24 1014.30 1013.29 1012.86 1012.64 1012.23 1012.05 1011.92 1011.86 1011.94 1011.76 1011.77 1011.60 1012.11 1013.24 1014.09 1015.11
1025.88 1025.89 1025.78 1025.66 1025.52 1025.29 1025.03 1024.74 1024.52 1024.27 1024.04 1023.74 1023.38 1022.77 1022.14 1021.75 1021.97 1021.71 1021.59 1021.11 1020.56 1019.87 1019.29 1018.94 1018.56 1017.82 1016.99 1015.83 1015.15 1014.52 1014.03 1013.51 1013.02 1012.61 1012.46 1011.93 1011.81 1011.56 1011.41 1010.88 1011.44 1011.63 1012.38 1014.55 1014.81
1025.74 1025.71 1025.64 1025.54 1025.44 1025.24 1025.00 1024.67 1024.40 1024.19 1024.00 1023.76 1023.42 1022.88 1022.26 1021.72 1022.00 1021.88 1021.66 1021.07 1020.43 1020.12 1019.72 1019.36 1018.86 1018.41 1017.58 1016.62 1015.78 1014.66 1014.30 1013.73 1013.36 1012.81 1012.43 1012.16 1011.56 1011.40 1010.94 1010.83 1011.25 1011.85 1012.39 1013.49 1014.42
1025.69 1025.67 1025.63 1025.57 1025.49 1025.28 1024.99 1024.63 1024.38 1024.14 1023.86 1023.63 1023.43 1023.24 1022.83 1022.21 1022.20 1022.04 1021.77 1021.16 1020.81 1020.44 1020.10 1019.70 1019.58 1019.40 1018.64 1017.52 1016.56 1015.16 1014.76 1014.09 1013.36 1012.78 1012.45 1012.16 1011.29 1011.18 1010.74 1010.65 1011.08 1011.80 1012.06 1012.72 1013.59
1025.54 1025.53 1025.51 1025.52 1025.35 1025.24 1024.92 1024.60 1024.32 1024.06 1023.91 1023.66 1023.44 1023.31 1022.90 1022.72 1022.25 1021.85 1021.57 1021.25 1021.02 1020.80 1020.33 1020.05 1019.94 1019.59 1019.09 1017.83 1016.91 1016.16 1015.10 1013.92 1013.24 1013.20 1012.35 1012.19 1010.49 1009.80 1010.63 1010.45 1010.79 1011.33 1011.67 1012.37 1012.79
1025.38 1025.28 1025.35 1025.28 1025.31 1025.15 1024.82 1024.52 1024.20 1023.83 1023.63 1023.53 1023.61 1023.44 1022.62 1022.42 1022.16 1021.64 1021.32 1021.05 1020.86 1020.54 1020.50 1020.15 1020.11 1019.81 1019.26 1018.32 1017.13 1016.29 1015.12 1013.79 1012.77 1012.68 1012.33 1012.49 1008.35 1009.39 1010.01 1010.04 1010.00 1010.56 1011.30 1012.02 1012.36
1025.18 1025.21 1025.24 1025.15 1025.11 1024.91 1024.56 1024.26 1024.00 1023.72 1023.54 1023.47 1023.57 1023.42 1022.58 1022.23 1022.13 1021.82 1021.50 1021.23 1020.93 1020.60 1020.35 1020.26 1020.25 1019.61 1019.17 1018.48 1017.40 1016.23 1014.50 1013.39 1012.78 1012.48 1011.93 1011.39 1009.41 1009.61 1009.43 1009.67 1009.42 1009.66 1010.50 1011.28 1012.07
1025.00 1025.12 1025.17 1025.09 1025.02 1024.77 1024.34 1024.19 1024.08 1023.93 1023.84 1023.63 1023.59 1023.64 1022.67 1022.81 1022.55 1022.10 1021.59 1021.41 1021.08 1020.69 1020.27 1020.10 1019.99 1019.58 1019.02 1018.46 1016.80 1016.04 1015.26 1014.44 1013.50 1012.96 1012.39 1011.11 1009.64 1009.63 1009.35 1009.06 1008.88 1008.98 1009.76 1010.45 1011.28
1024.85 1024.96 1025.13 1025.05 1024.96 1024.66 1024.30 1024.29 1024.55 1024.44 1024.27 1024.73 1024.65 1024.21 1023.48 1023.19 1022.83 1022.10 1021.62 1021.42 1021.10 1020.81 1020.48 1020.46 1019.94 1018.96 1018.45 1018.18 1017.61 1017.08 1016.40 1015.55 1014.84 1014.14 1013.85 1012.19 1011.18 1010.36 1009.53 1009.14 1008.40 1008.13 1008.65 1009.42 1010.34
1024.85 1024.95 1025.07 1025.04 1025.05 1024.85 1024.60 1025.29 1026.12 1026.32 1025.39 1025.21 1024.85 1024.48 1024.04 1023.93 1023.09 1022.02 1021.96 1021.67 1021.32 1020.99 1021.00 1020.55 1019.26 1018.51 1018.58 1018.31 1017.91 1017.44 1016.99 1016.46 1016.23 1015.09 1014.28 1013.02 1011.08 1011.25 1010.80 1009.45 1008.49 1007.82 1007.92 1008.44 1009.74
1024.77 1024.86 1024.99 1025.10 1025.16 1025.25 1025.70 1026.43 1026.58 1026.21 1025.77 1025.18 1024.81 1024.46 1023.99 1024.12 1023.25 1022.26 1022.13 1021.88 1021.56 1021.23 1021.11 1020.86 1018.80 1018.67 1018.73 1018.22 1017.58 1017.03 1016.83 1016.69 1016.50 1015.92 1014.92 1013.76 1010.95 1010.44 1009.83 1009.43 1008.68 1007.92 1007.40 1007.60 1008.40
1024.86 1024.92 1024.97 1025.17 1025.42 1025.95 1026.26 1026.55 1026.62 1026.35 1025.86 1025.60 1024.76 1024.59 1024.10 1023.74 1023.17 1022.40 1022.16 1022.20 1021.70 1021.36 1021.19 1020.21 1019.26 1018.94 1018.46 1017.80 1017.54 1017.06 1016.64 1016.54 1016.39 1016.28 1014.50 1013.17 1008.83 1008.80 1008.00 1007.34 1006.89 1006.52 1006.41 1007.11 1007.94
1024.84 1025.03 1025.28 1025.12 1025.57 1026.11 1026.70 1026.47 1026.65 1026.47 1026.27 1026.09 1025.09 1024.73 1024.45 1024.25 1023.62 1022.34 1022.24 1021.98 1021.57 1021.43 1021.87 1019.87 1019.11 1018.83 1018.14 1017.24 1017.35 1016.81 1016.69 1016.44 1016.07 1015.53 1015.14 1013.41 1010.93 1006.56 1006.89 1005.55 1004.94 1004.80 1005.18 1005.99 1007.23
1025.03 1025.24 1025.45 1025.59 1026.01 1026.64 1026.53 1026.43 1026.57 1026.73 1026.66 1026.48 1025.88 1025.51 1024.87 1024.46 1023.87 1023.05 1022.56 1022.36 1021.85 1021.60 1021.31 1020.01 1019.15 1018.94 1017.82 1017.13 1017.11 1016.88 1016.62 1016.02 1015.56 1015.00 1013.50 1011.75 1010.97 1004.85 1005.58 1004.34 1003.93 1003.84 1004.33 1005.24 1006.44
1025.22 1025.39 1025.62 1026.03 1026.54 1026.64 1026.42 1026.41 1026.72 1027.07 1028.12 1027.58 1027.02 1026.59 1026.06 1025.15 1024.30 1023.92 1023.16 1022.61 1022.64 1022.12 1020.80 1019.38 1018.25 1018.11 1017.96 1017.25 1016.83 1017.04 1017.04 1015.99 1014.87 1014.04 1011.32 1009.88 1008.55 1005.17 1004.18 1003.40 1002.73 1003.03 1003.55 1004.53 1006.08
1025.41 1025.41 1026.65 1026.93 1026.93 1026.56 1026.41 1026.46 1027.15 1028.70 1028.51 1028.40 1027.93 1027.34 1026.77 1026.29 1025.19 1024.52 1023.73 1023.35 1023.25 1023.22 1022.00 1020.16 1018.21 1017.62 1017.33 1017.17 1016.71 1016.74 1016.97 1015.85 1013.89 1012.38 1010.01 1008.76 1007.22 1005.23 1004.69 1004.40 1003.99 1002.89 1002.31 1002.60 1004.57
1025.23 1026.04 1026.66 1026.97 1026.92 1026.60 1026.49 1027.05 1027.95 1028.65 1028.73 1028.69 1028.23 1028.08 1027.74 1027.24 1026.69 1025.42 1024.43 1024.02 1023.56 1023.67 1023.30 1021.38 1018.62 1017.38 1017.12 1017.20 1017.56 1016.82 1016.62 1015.49 1014.31 1012.43 1011.33 1008.24 1006.46 1005.36 1005.27 1004.87 1004.73 1003.67 1002.98 1003.00 1004.76
1025.35 1026.24 1027.03 1027.16 1027.01 1026.63 1026.94 1028.06 1028.63 1028.83 1028.72 1028.70 1028.75 1029.20 1028.85 1028.10 1027.31 1026.40 1025.14 1024.23 1023.76 1023.68 1023.46 1022.06 1019.76 1017.50 1016.95 1017.20 1016.68 1016.81 1016.72 1015.54 1014.11 1011.56 1009.46 1007.03 1006.57 1005.56 1006.36 1006.07 1005.76 1004.71 1003.39 1004.27 1005.33
1025.46 1026.55 1027.24 1027.08 1027.01 1027.07 1027.91 1028.79 1028.81 1028.73 1028.72 1028.79 1028.89 1028.90 1028.79 1028.60 1027.99 1027.10 1025.63 1024.33 1023.95 1023.59 1023.25 1022.33 1020.95 1018.18 1017.46 1016.39 1015.95 1016.62 1016.06 1015.35 1014.19 1011.63 1009.02 1007.60 1006.87 1008.25 1008.08 1007.57 1007.13 1006.22 1005.42 1005.82 1006.44
1025.81 1027.10 1027.49 1027.15 1027.83 1028.79 1028.87 1029.06 1028.66 1028.47 1028.52 1028.57 1028.76 1028.63 1028.57 1028.46 1027.88 1027.23 1025.74 1024.68 1023.98 1023.94 1023.37 1022.59 1021.41 1018.99 1016.75 1015.88 1015.81 1016.27 1015.56 1015.00 1013.57 1010.80 1009.82 1009.00 1007.98 1008.46 1008.91 1008.52 1007.70 1007.29 1007.50 1007.12 1007.75
1026.06 1027.46 1027.64 1027.51 1028.09 1028.84 1029.38 1029.08 1028.46 1028.31 1028.23 1028.38 1028.43 1028.49 1028.42 1028.37 1028.18 1026.92 1025.66 1024.20 1024.13 1024.13 1023.52 1023.04 1021.61 1019.48 1016.63 1016.39 1016.14 1015.86 1015.10 1014.29 1013.28 1011.59 1009.62 1009.33 1008.59 1008.86 1009.54 1009.57 1008.95 1008.33 1008.61 1008.86 1009.11
1026.03 1027.49 1028.07 1028.16 1028.56 1028.31 1029.06 1028.87 1028.40 1028.16 1028.09 1028.17 1028.07 1028.20 1028.45 1028.20 1027.93 1026.74 1025.61 1024.39 1024.18 1024.13 1023.89 1023.54 1021.99 1020.66 1019.23 1017.77 1017.04 1015.87 1014.90 1013.90 1013.19 1011.80 1010.44 1010.00 1009.74 1009.42 1009.35 1009.40 1009.12 1009.41 1009.67 1010.18 1010.51
1025.88 1027.22 1027.60 1028.27 1028.47 1028.33 1028.38 1028.43 1028.26 1028.13 1028.13 1028.01 1027.71 1027.73 1028.09 1028.08 1027.67 1026.91 1026.08 1025.08 1024.16 1024.22 1024.03 1023.54 1022.21 1020.97 1019.57 1017.96 1017.01 1016.15 1015.03 1013.96 1013.23 1012.47 1011.43 1010.94 1010.36 1009.78 1010.11 1010.28 1010.59 1010.63 1010.36 1010.82 1011.44
1025.56 1026.90 1027.71 1028.03 1028.16 1028.16 1028.33 1028.33 1027.97 1028.01 1027.91 1027.67 1027.58 1027.40 1027.88 1027.83 1027.19 1026.74 1026.40 1025.96 1025.07 1024.26 1024.08 1023.65 1022.21 1021.10 1018.95 1017.55 1016.66 1015.76 1015.13 1014.18 1013.58 1013.11 1012.39 1011.74 1011.17 1010.90 1010.63 1010.69 1011.03 1011.21 1011.04 1011.59 1012.10
1025.30 1025.97 1025.47 1027.86 1028.15 1028.10 1027.61 1027.49 1027.45 1027.57 1027.20 1027.21 1027.31 1027.58 1027.54 1027.17 1027.10 1026.78 1026.66 1026.27 1025.71 1025.55 1024.83 1023.95 1022.85 1021.38 1018.79 1016.96 1015.59 1015.40 1015.21 1015.17 1014.93 1014.77 1014.33 1013.00 1012.43 1011.62 1010.92 1011.02 1011.36 1011.62 1012.00 1012.00 1012.50
Wind_Speed
6 7 9 9 9 11 12 13 13 13 14 15 16 18 19 19 16 5 13 11 13 17 12 9 7 8 5 4 4 2 9 13 17 15 11 4 5 3 4 5 5 8 2 3 22
7 7 9 9 9 11 12 12 12 13 15 16 17 18 19 18 4 13 8 16 17 16 8 9 6 7 5 4 5 11 13 20 11 14 10 5 5 4 4 7 7 6 3 9 21
7 7 8 9 10 10 11 11 12 13 14 16 18 19 20 9 1 5 13 19 16 14 6 5 5 4 7 8 8 7 17 16 13 12 7 5 5 4 8 8 13 14 13 18 21
4 6 6 8 9 10 11 11 11 12 13 15 16 18 18 2 2 4 16 18 13 10 8 4 3 3 6 12 11 13 12 15 16 11 7 9 4 5 10 16 4 4 14 18 21
4 4 5 6 7 9 10 11 12 13 14 15 15 16 7 3 4 5 16 15 8 7 7 6 3 3 8 6 11 17 15 14 16 18 18 19 18 17 12 15 11 3 17 21 21
5 6 6 7 8 9 11 12 12 11 12 13 13 11 4 4 3 7 11 9 9 7 5 5 3 5 7 8 12 10 12 12 15 19 18 17 19 17 13 15 12 11 17 19 22
3 4 6 7 8 9 11 12 13 13 11 11 9 5 3 5 5 10 8 7 4 5 5 2 2 4 6 8 8 12 18 18 18 13 15 16 27 28 16 12 9 12 13 17 20
4 4 5 5 7 9 11 13 13 14 10 6 3 2 2 1 8 9 9 9 4 8 4 6 4 6 5 8 10 8 13 17 12 20 15 12 25 20 21 17 17 14 13 16 21
4 3 4 4 6 9 13 14 12 5 3 2 1 2 3 4 8 10 9 8 9 5 5 4 4 6 5 9 11 12 15 17 15 16 15 25 22 17 16 15 18 16 15 16 17
4 3 2 2 5 10 13 7 5 1 4 2 2 2 2 8 8 10 5 4 3 7 3 1 3 5 6 9 11 10 15 17 20 13 9 25 25 21 16 22 21 17 16 16 18
2 3 2 2 6 11 5 1 1 2 6 4 3 2 6 11 6 4 4 6 2 2 6 3 5 10 13 15 18 18 19 21 18 13 14 14 15 14 17 19 22 22 18 17 19
4 5 5 4 6 7 4 5 3 1 1 1 2 5 6 4 6 5 4 4 4 7 5 3 12 11 8 14 17 18 18 19 15 19 22 21 26 18 17 17 21 21 21 19 16
7 8 6 4 3 5 7 3 3 3 1 2 2 3 6 3 5 5 6 3 4 4 3 7 14 15 8 11 16 19 19 18 13 14 21 16 25 23 17 21 21 24 21 20 21
9 8 6 4 2 1 3 3 2 2 1 8 1 1 4 4 4 4 2 4 3 7 5 11 5 8 10 16 14 16 16 17 18 11 10 8 22 26 21 23 26 24 25 21 19
10 8 5 1 6 2 2 3 1 3 1 7 5 4 12 4 8 2 2 2 9 11 3 8 13 14 17 17 9 11 13 15 16 16 13 16 14 13 20 25 24 24 27 25 20
11 11 8 4 2 2 2 2 2 1 0 4 5 9 9 2 3 7 4 3 5 7 7 21 13 12 11 12 11 10 9 12 15 13 14 19 16 19 17 24 24 22 24 23 19
11 9 5 1 2 3 1 1 1 2 3 5 5 8 9 7 7 4 7 9 6 7 9 16 6 4 7 7 9 11 7 5 6 8 12 16 17 26 17 25 27 25 23 22 20
11 8 6 3 4 0 0 1 2 2 4 3 5 10 5 9 3 9 8 6 3 4 11 9 8 4 5 6 6 8 6 5 9 9 13 9 7 9 3 11 17 20 24 28 27
10 3 2 5 5 1 1 3 2 5 2 3 3 3 4 4 5 7 5 4 3 5 8 7 9 9 9 3 2 3 7 4 7 15 12 10 11 11 4 5 10 18 21 23 24
3 3 2 8 4 1 4 1 3 3 3 2 3 2 5 6 8 7 4 3 3 2 8 5 13 7 2 4 13 6 3 5 5 7 12 9 8 10 11 16 15 16 21 15 16
3 3 1 5 2 3 2 2 4 6 3 2 1 2 4 4 3 4 5 5 1 8 9 10 7 7 11 6 10 4 5 5 5 8 5 7 4 2 10 13 17 10 11 14 15
3 1 3 2 2 1 2 5 4 3 3 3 3 5 4 3 5 5 6 5 3 6 9 4 5 7 19 13 3 3 10 5 6 4 5 2 3 5 9 12 11 4 3 8 12
4 2 1 2 3 2 1 3 3 4 4 4 5 7 3 4 6 6 6 6 10 7 6 7 4 8 7 3 4 6 5 8 11 6 4 4 3 5 7 5 3 8 7 6 13
4 3 2 3 1 5 5 4 3 4 3 4 3 3 3 6 7 7 8 8 10 8 8 6 5 8 12 16 15 11 17 17 4 6 8 4 7 12 13 9 7 5 10 9 11
2 2 1 4 4 4 3 6 4 4 4 4 3 8 5 5 6 6 5 13 7 2 10 5 6 7 14 19 15 16 14 13 3 7 5 6 7 12 13 8 5 5 8 12 12
6 6 2 3 4 7 2 6 7 3 6 5 7 2 9 8 8 9 9 8 8 6 12 5 5 7 9 6 11 8 10 14 9 7 6 8 5 8 12 5 5 5 7 9 10
3 1 3 6 4 4 4 6 7 7 6 4 6 3 8 14 12 14 11 11 13 12 9 5 6 5 5 13 16 1 13 10 6 13 8 6 5 11 12 13 10 6 6 7 8
Wind_Direction
22 18 10 12 15 11 12 15 6 3 357 353 351 347 343 341 332 46 45 344 333 330 323 314 304 323 293 266 235 217 230 230 223 213 224 173 202 146 351 227 204 195 272 2 148
20 12 10 10 10 8 7 9 7 358 353 350 346 344 342 341 335 60 13 360 348 346 341 348 328 331 252 230 220 220 231 234 234 226 226 200 245 220 193 207 232 206 147 141 154
10 3 2 5 3 2 3 1 357 355 353 351 345 341 339 338 245 35 347 346 341 343 328 307 304 277 243 238 213 217 242 241 243 232 222 235 242 218 225 219 232 225 184 161 168
1 356 346 354 355 353 353 352 348 345 346 350 347 342 337 286 42 358 340 340 336 342 14 343 339 248 244 231 226 250 241 256 243 237 238 230 244 227 240 249 162 225 175 173 180
303 308 317 331 335 337 341 344 342 340 341 344 346 349 344 45 47 340 335 338 345 347 18 2 334 299 254 276 263 249 254 255 254 254 252 262 250 258 249 257 241 196 166 181 191
283 277 299 312 320 326 331 332 332 331 332 334 340 346 337 77 348 325 327 329 2 351 356 354 17 322 274 275 268 317 289 279 264 255 251 253 251 242 241 262 236 186 188 187 196
305 295 299 299 309 312 319 321 322 318 320 320 336 352 326 44 321 319 318 328 313 332 319 317 334 306 334 281 279 284 277 276 253 257 249 261 255 242 246 238 230 222 196 194 197
311 308 313 317 306 309 313 318 315 309 309 304 68 326 319 249 310 309 330 319 290 312 247 282 275 287 254 285 286 273 267 256 246 243 239 224 258 240 230 238 242 226 211 201 200
282 303 310 320 315 314 317 323 320 335 6 103 158 337 71 321 342 328 323 318 307 299 286 289 276 272 264 265 272 239 258 250 247 243 242 222 259 248 234 229 238 233 214 208 203
262 265 282 335 327 323 325 336 35 73 32 88 114 234 16 335 320 317 299 312 315 322 312 289 217 262 252 239 244 256 257 253 251 262 282 254 250 251 253 231 231 236 222 211 210
247 197 167 71 353 338 356 341 327 144 31 21 342 306 294 323 286 290 333 321 296 312 343 24 280 256 267 259 268 276 274 272 275 282 301 279 287 296 264 237 236 236 225 215 215
196 153 135 84 39 25 45 57 53 44 339 312 290 279 275 315 303 340 319 341 334 319 317 281 273 296 275 265 261 260 265 270 288 264 269 277 276 259 268 273 258 236 229 217 210
160 144 129 98 72 44 69 67 310 204 339 317 316 296 309 279 312 300 336 333 299 307 297 257 269 302 278 268 253 247 248 259 251 294 281 283 273 265 248 251 249 255 243 222 206
147 133 122 117 112 85 71 354 311 204 82 355 10 72 318 297 250 291 257 296 269 299 313 274 284 274 276 261 260 269 253 254 256 268 262 235 268 253 243 245 236 234 237 229 209
134 117 99 27 123 93 33 347 148 228 26 351 319 341 333 343 326 152 321 244 280 285 273 282 295 297 283 273 254 255 263 260 257 247 288 270 265 262 245 244 246 231 223 221 209
125 122 114 72 75 67 326 113 210 249 347 348 316 351 344 328 337 310 329 295 289 294 255 265 278 281 263 272 260 272 288 271 256 249 251 259 249 271 247 249 239 233 218 216 199
120 87 65 49 79 338 70 193 317 89 1 338 336 337 332 320 327 334 331 352 347 319 324 320 286 253 235 259 235 250 269 277 232 216 256 253 251 249 250 239 231 216 206 206 195
115 80 50 42 337 124 167 61 79 61 256 329 312 319 333 355 300 323 326 350 34 348 304 334 324 212 171 247 262 206 214 255 291 245 272 192 247 251 260 295 285 270 212 197 181
119 65 61 10 347 288 76 59 186 195 193 298 317 4 340 340 324 335 318 308 328 17 6 306 276 298 267 220 195 134 209 260 266 257 272 255 245 283 328 322 315 283 250 201 177
100 94 56 336 331 36 72 149 194 215 218 55 28 20 319 318 331 340 311 212 294 33 346 281 291 291 332 243 222 226 348 269 209 246 232 228 241 244 338 316 312 323 232 181 166
76 112 38 345 280 49 103 204 210 225 218 168 231 263 245 296 254 277 265 273 159 336 322 285 250 299 296 231 292 209 244 218 258 245 262 272 232 48 294 291 284 303 209 157 147
108 134 11 307 53 14 142 191 194 192 187 224 248 258 269 260 271 270 267 257 346 345 313 309 290 282 287 316 308 287 275 238 259 337 252 309 286 20 320 305 260 102 18 118 121
104 93 46 273 180 156 277 248 209 193 197 197 225 218 212 280 291 229 268 271 312 340 322 345 290 293 291 177 194 298 265 244 275 247 246 258 9 351 334 321 353 105 88 87 109
130 145 18 62 15 134 169 207 207 207 232 224 242 196 219 265 232 275 289 300 329 327 315 297 255 284 302 302 303 296 306 297 259 280 322 10 300 330 353 359 21 76 101 94 98
37 176 321 165 211 161 168 161 162 203 214 223 238 217 193 272 283 243 274 306 296 28 348 338 267 278 287 283 282 308 306 311 311 304 333 327 327 352 343 353 358 71 100 111 109
142 153 169 106 162 137 201 207 197 211 196 218 229 208 204 239 230 290 305 303 282 307 338 336 276 313 284 250 297 307 354 356 350 347 340 310 359 350 347 22 62 77 90 102 115
133 58 102 150 149 163 208 192 209 180 216 236 221 245 247 257 271 272 272 271 274 299 309 294 320 310 272 323 318 86 357 352 342 9 319 341 334 336 355 10 21 73 90 103 107